Regional Weather Roundup
Issued by NWS Kansas City/Pleasant Hill, MO

Home | Current Version | Previous Version | Text Only | Print | Product List | Glossary On
Versions: 1 2 3 4 5 6 7 8 9 10 11 12 13 14 15 16 17 18 19 20 21 22 23 24 25 26 27 28
000
ASUS43 KEAX 252310
RWREAX

WEATHER ROUNDUP FOR EASTERN KANSAS AND NORTHWEST MISSOURI
NATIONAL WEATHER SERVICE KANSAS CITY/PLEASANT HILL MO
600 PM CDT TUE APR 25 2017

KSZ040-057-103>105-MOZ028-029-037-043-260000-
...KANSAS CITY METROPOLITAN AREA...

CITY           SKY/WX    TMP DP  RH WIND       PRES   REMARKS
K.C. INTL      CLOUDY    71  58  63 SW8       29.42S
K.C. DOWNTOWN  CLOUDY    73  58  59 SW5       29.41R
LEES SUMMIT    CLOUDY    72  58  61 SW9       29.43R
OLATHE - IXD   CLOUDY    70  58  65 S7        29.43R
OLATHE - OJC   CLOUDY    70  59  68 SW7       29.43R
LAWRENCE       CLOUDY    71  58  63 CALM      29.42R

$$

MOZ001>008-011>017-020>025-030>033-038>040-044>046-053-054-260000-
...NORTHERN AND CENTRAL MISSOURI...

CITY           SKY/WX    TMP DP  RH WIND       PRES   REMARKS
ST. JOSEPH     CLOUDY    69  56  62 W5        29.43R
WHITEMAN AFB   PTSUNNY   76  59  54 W9        29.41R
CLINTON        CLOUDY    75  59  57 SW9       29.43R
SEDALIA        CLOUDY    79  59  50 S15       29.41S
WARSAW         NOT AVBL
CHILLICOTHE      N/A     74  55  51 VRB3      29.43R
KIRKSVILLE     CLOUDY    75  56  51 S5        29.41S

$$

MOZ041-047>049-056>058-063>065-088>090-097-260000-
...EASTERN AND SOUTHERN MISSOURI...

CITY           SKY/WX    TMP DP  RH WIND       PRES   REMARKS
ST. LOUIS INTL PTSUNNY   80  49  33 SE22G30   29.48R
SPIRIT OF STL  PTSUNNY   80  49  33 S14G31    29.46R
COLUMBIA       CLOUDY    78  55  44 S14       29.43R
JEFFERSON CITY CLOUDY    82  54  37 S10G21    29.42R
ROLLA          PTSUNNY   75  53  46 S17G25    29.46R
OSAGE BEACH    MOSUNNY   81  57  43 S12G18    29.44S
SPRINGFIELD    MOSUNNY   78  58  49 S16       29.44R
BRANSON        PTSUNNY   77  59  53 S12       29.48S
JOPLIN         CLOUDY    76  60  57 SW17      29.44R
WEST PLAINS    SUNNY     76  53  44 S17G24    29.52S

$$

IAZ060-094-KSZ022-034>040-054-083-096-NEZ052-066-093-260000-
...KANSAS...SOUTHEAST NEBRASKA AND IOWA...

CITY           SKY/WX    TMP DP  RH WIND       PRES   REMARKS
TOPEKA         CLOUDY    69  57  65 N9        29.42R
MANHATTAN      CLOUDY    58  46  64 N5        29.48R
EMPORIA        CLOUDY    71  56  58 NW9       29.42R
CHANUTE        CLOUDY    74  59  59 S9        29.41S
WICHITA        LGT RAIN  63  53  70 NW18G24   29.47R
OMAHA          LGT RAIN  46  42  86 NW16G22   29.52R FOG
LINCOLN        CLOUDY    47  40  76 N20       29.57R
FALLS CITY     CLOUDY    56  46  69 N13       29.46R
LAMONI         CLOUDY    68  54  60 SW7       29.43R
DES MOINES     CLOUDY    71  50  47 SE6       29.42R

$$





USA.gov is the U.S. government's official web portal to all federal, state and local government web resources and services.